Time,TemperatureF,DewpointF,PressureIn,WindDirection,WindDirectionDegrees,WindSpeedMPH,WindSpeedGustMPH,Humidity,HourlyPrecipIn,Conditions,Clouds,dailyrainin,SolarRadiationWatts/m^2,SoftwareType,DateUTC
2014-12-29 00:06:00,35.7,25.0,30.00,NW,309,2.0,5.0,66,0.00,,,0.00,0,weatherlink.com 1.10,2014-12-29 05:06:00,
2014-12-29 00:21:00,34.5,25.0,30.00,NNW,335,2.0,2.0,69,0.00,,,0.00,0,weatherlink.com 1.10,2014-12-29 05:21:00,
2014-12-29 00:36:00,33.8,25.0,30.00,NNW,335,1.0,3.0,71,0.00,,,0.00,0,weatherlink.com 1.10,2014-12-29 05:36:00,
2014-12-29 00:51:00,34.0,24.0,30.00,NNE,12,2.0,4.0,68,0.00,,,0.00,0,weatherlink.com 1.10,2014-12-29 05:51:00,
2014-12-29 01:07:00,32.1,26.0,30.01,NW,326,1.0,3.0,77,0.00,,,0.00,0,weatherlink.com 1.10,2014-12-29 06:07:00,
2014-12-29 01:22:00,30.8,26.0,30.01,WNW,301,0.0,3.0,81,0.00,,,0.00,0,weatherlink.com 1.10,2014-12-29 06:22:00,
2014-12-29 01:37:00,29.7,26.0,30.02,WNW,296,0.0,4.0,86,0.00,,,0.00,0,weatherlink.com 1.10,2014-12-29 06:37:00,
2014-12-29 01:52:00,30.2,26.0,30.04,NW,311,0.0,0.0,85,0.00,,,0.00,0,weatherlink.com 1.10,2014-12-29 06:52:00,
2014-12-29 02:07:00,30.2,26.0,30.04,WNW,290,0.0,0.0,85,0.00,,,0.00,0,weatherlink.com 1.10,2014-12-29 07:07:00,
2014-12-29 02:22:00,29.5,26.0,30.04,WNW,290,0.0,0.0,87,0.00,,,0.00,0,weatherlink.com 1.10,2014-12-29 07:22:00,
2014-12-29 02:37:00,29.4,26.0,30.04,WNW,290,0.0,0.0,87,0.00,,,0.00,0,weatherlink.com 1.10,2014-12-29 07:37:00,
2014-12-29 02:52:00,29.0,27.0,30.03,SW,219,3.0,3.0,90,0.00,,,0.00,0,weatherlink.com 1.10,2014-12-29 07:52:00,
2014-12-29 03:07:00,29.3,27.0,30.04,WSW,255,0.0,3.0,90,0.00,,,0.00,0,weatherlink.com 1.10,2014-12-29 08:07:00,
2014-12-29 03:22:00,29.8,27.0,30.04,WSW,255,1.0,2.0,90,0.00,,,0.00,0,weatherlink.com 1.10,2014-12-29 08:22:00,
2014-12-29 03:37:00,30.0,28.0,30.04,SW,219,0.0,3.0,91,0.00,,,0.00,0,weatherlink.com 1.10,2014-12-29 08:37:00,
2014-12-29 03:52:00,29.9,27.0,30.04,SW,219,2.0,3.0,88,0.00,,,0.00,0,weatherlink.com 1.10,2014-12-29 08:52:00,
2014-12-29 04:07:00,29.8,27.0,30.04,SW,219,0.0,2.0,89,0.00,,,0.00,0,weatherlink.com 1.10,2014-12-29 09:07:00,
2014-12-29 04:22:00,29.8,27.0,30.04,SW,219,0.0,2.0,90,0.00,,,0.00,0,weatherlink.com 1.10,2014-12-29 09:22:00,
2014-12-29 04:37:00,29.6,27.0,30.04,South,183,0.0,3.0,90,0.00,,,0.00,0,weatherlink.com 1.10,2014-12-29 09:37:00,
2014-12-29 04:52:00,29.1,27.0,30.04,NW,321,0.0,4.0,90,0.00,,,0.00,0,weatherlink.com 1.10,2014-12-29 09:52:00,
2014-12-29 05:07:00,28.9,26.0,30.05,South,191,0.0,0.0,89,0.00,,,0.00,0,weatherlink.com 1.10,2014-12-29 10:07:00,
2014-12-29 05:25:00,28.2,25.0,30.05,SSW,192,0.0,0.0,89,0.00,,,0.00,0,weatherlink.com 1.10,2014-12-29 10:25:00,
2014-12-29 05:37:00,27.9,25.0,30.06,SSW,192,0.0,0.0,90,0.00,,,0.00,0,weatherlink.com 1.10,2014-12-29 10:37:00,
2014-12-29 05:52:00,27.7,25.0,30.06,WNW,299,2.0,4.0,90,0.00,,,0.00,0,weatherlink.com 1.10,2014-12-29 10:52:00,
2014-12-29 06:07:00,27.7,25.0,30.07,WNW,288,0.0,0.0,89,0.00,,,0.00,0,weatherlink.com 1.10,2014-12-29 11:07:00,
2014-12-29 06:22:00,27.3,25.0,30.07,NNW,333,2.0,2.0,90,0.00,,,0.00,0,weatherlink.com 1.10,2014-12-29 11:22:00,
2014-12-29 06:37:00,27.2,25.0,30.08,SSE,158,4.0,4.0,90,0.00,,,0.00,0,weatherlink.com 1.10,2014-12-29 11:37:00,
2014-12-29 06:52:00,27.2,25.0,30.09,South,189,2.0,3.0,90,0.00,,,0.00,0,weatherlink.com 1.10,2014-12-29 11:52:00,
2014-12-29 07:07:00,27.2,25.0,30.09,SSW,203,2.0,3.0,91,0.00,,,0.00,0,weatherlink.com 1.10,2014-12-29 12:07:00,
2014-12-29 07:22:00,27.0,25.0,30.09,WSW,244,2.0,4.0,91,0.00,,,0.00,5,weatherlink.com 1.10,2014-12-29 12:22:00,
2014-12-29 07:37:00,26.9,25.0,30.09,West,261,3.0,6.0,91,0.00,,,0.00,9,weatherlink.com 1.10,2014-12-29 12:37:00,
2014-12-29 07:52:00,28.0,25.0,30.09,NW,317,0.0,7.0,89,0.00,,,0.00,18,weatherlink.com 1.10,2014-12-29 12:52:00,
2014-12-29 08:07:00,30.6,25.0,30.09,West,275,4.0,8.0,79,0.00,,,0.00,23,weatherlink.com 1.10,2014-12-29 13:07:00,
2014-12-29 08:22:00,33.2,25.0,30.09,NNE,14,3.0,8.0,72,0.00,,,0.00,32,weatherlink.com 1.10,2014-12-29 13:22:00,
2014-12-29 08:37:00,33.8,25.0,30.09,North,1,3.0,9.0,71,0.00,,,0.00,160,weatherlink.com 1.10,2014-12-29 13:37:00,
2014-12-29 08:53:00,35.7,24.0,30.09,North,11,2.0,6.0,63,0.00,,,0.00,179,weatherlink.com 1.10,2014-12-29 13:53:00,
2014-12-29 09:08:00,36.0,24.0,30.10,NW,309,3.0,4.0,63,0.00,,,0.00,232,weatherlink.com 1.10,2014-12-29 14:08:00,
2014-12-29 09:23:00,35.9,23.0,30.11,NNW,345,1.0,4.0,61,0.00,,,0.00,178,weatherlink.com 1.10,2014-12-29 14:23:00,
2014-12-29 09:38:00,36.6,22.0,30.12,NNW,329,6.0,10.0,57,0.00,,,0.00,236,weatherlink.com 1.10,2014-12-29 14:38:00,
2014-12-29 09:53:00,36.8,22.0,30.12,NW,326,1.0,9.0,55,0.00,,,0.00,352,weatherlink.com 1.10,2014-12-29 14:53:00,
2014-12-29 10:08:00,37.7,22.0,30.12,North,5,7.0,13.0,53,0.00,,,0.00,378,weatherlink.com 1.10,2014-12-29 15:08:00,